owner,sensor,date,latitude,longitude,vertical_datum,mass_concentration_of_oxygen_in_sea_water,qcFlag 
DISL,ioos:station:DISL:DISL:1,2013-05-01T00:00:00Z,30.2513,-88.0778,2.197608,7.0,1111122 
DISL,ioos:station:DISL:DISL:1,2013-05-01T00:30:00Z,30.2513,-88.0778,2.16408,6.68,1111122 
DISL,ioos:station:DISL:DISL:1,2013-05-01T01:00:00Z,30.2513,-88.0778,2.151888,4.84,1111122 
DISL,ioos:station:DISL:DISL:1,2013-05-01T01:30:00Z,30.2513,-88.0778,2.124456,5.24,1111122 
DISL,ioos:station:DISL:DISL:1,2013-05-01T02:00:00Z,30.2513,-88.0778,2.0955,5.59,1111122 
DISL,ioos:station:DISL:DISL:1,2013-05-01T02:30:00Z,30.2513,-88.0778,2.067763,4.76,1111122 
DISL,ioos:station:DISL:DISL:1,2013-05-01T03:00:00Z,30.2513,-88.0778,2.059229,6.84,1111122 
DISL,ioos:station:DISL:DISL:1,2013-05-01T03:30:00Z,30.2513,-88.0778,2.0467322,6.56,1111122 
DISL,ioos:station:DISL:DISL:1,2013-05-01T04:00:00Z,30.2513,-88.0778,2.0266154,6.51,1111122 
DISL,ioos:station:DISL:DISL:1,2013-05-01T04:30:00Z,30.2513,-88.0778,2.0031457,6.78,1111122 
DISL,ioos:station:DISL:DISL:1,2013-05-01T05:00:00Z,30.2513,-88.0778,1.9775424,6.69,1111122 
DISL,ioos:station:DISL:DISL:1,2013-05-01T05:30:00Z,30.2513,-88.0778,1.9397472,6.91,1111122 
DISL,ioos:station:DISL:DISL:1,2013-05-01T06:00:00Z,30.2513,-88.0778,1.9702272,6.84,1111122 
DISL,ioos:station:DISL:DISL:1,2013-05-01T06:30:00Z,30.2513,-88.0778,1.9513296,6.71,1111122 
DISL,ioos:station:DISL:DISL:1,2013-05-01T07:00:00Z,30.2513,-88.0778,1.9251168,6.67,1111122 
DISL,ioos:station:DISL:DISL:1,2013-05-01T07:30:00Z,30.2513,-88.0778,1.926336,6.79,1111122 
DISL,ioos:station:DISL:DISL:1,2013-05-01T08:00:00Z,30.2513,-88.0778,1.915668,7.02,1111122 
DISL,ioos:station:DISL:DISL:1,2013-05-01T08:30:00Z,30.2513,-88.0778,1.9266409,6.79,1111122 
DISL,ioos:station:DISL:DISL:1,2013-05-01T09:00:00Z,30.2513,-88.0778,1.9443192,6.78,1111122 
DISL,ioos:station:DISL:DISL:1,2013-05-01T09:30:00Z,30.2513,-88.0778,1.9769329,6.89,1111122 
DISL,ioos:station:DISL:DISL:1,2013-05-01T10:00:00Z,30.2513,-88.0778,1.967484,6.72,1111122 
DISL,ioos:station:DISL:DISL:1,2013-05-01T10:30:00Z,30.2513,-88.0778,1.9876008,6.65,1111122 
DISL,ioos:station:DISL:DISL:1,2013-05-01T11:00:00Z,30.2513,-88.0778,2.0214336,6.13,1111122 
DISL,ioos:station:DISL:DISL:1,2013-05-01T11:30:00Z,30.2513,-88.0778,2.0199096,6.06,1111122 
DISL,ioos:station:DISL:DISL:1,2013-05-01T12:00:00Z,30.2513,-88.0778,2.0516088,5.94,1111122 
DISL,ioos:station:DISL:DISL:1,2013-05-01T12:30:00Z,30.2513,-88.0778,2.0705066,6.11,1111122 
DISL,ioos:station:DISL:DISL:1,2013-05-01T13:00:00Z,30.2513,-88.0778,2.0951953,6.19,1111122 
DISL,ioos:station:DISL:DISL:1,2013-05-01T13:30:00Z,30.2513,-88.0778,2.122932,6.28,1111122 
DISL,ioos:station:DISL:DISL:1,2013-05-01T14:00:00Z,30.2513,-88.0778,2.1488402,6.38,1111122 
DISL,ioos:station:DISL:DISL:1,2013-05-01T14:30:00Z,30.2513,-88.0778,2.2098,6.55,1111122 
DISL,ioos:station:DISL:DISL:1,2013-05-01T15:00:00Z,30.2513,-88.0778,2.154936,6.49,1111122 
DISL,ioos:station:DISL:DISL:1,2013-05-01T15:30:00Z,30.2513,-88.0778,2.200656,6.28,1111122 
DISL,ioos:station:DISL:DISL:1,2013-05-01T16:00:00Z,30.2513,-88.0778,2.252472,6.5,1111122 
DISL,ioos:station:DISL:DISL:1,2013-05-01T16:30:00Z,30.2513,-88.0778,2.27076,6.5,1111122 
DISL,ioos:station:DISL:DISL:1,2013-05-01T17:00:00Z,30.2513,-88.0778,2.313432,6.59,1111122 
DISL,ioos:station:DISL:DISL:1,2013-05-01T17:30:00Z,30.2513,-88.0778,2.2799041,6.52,1111122 
DISL,ioos:station:DISL:DISL:1,2013-05-01T18:00:00Z,30.2513,-88.0778,2.337816,6.47,1111122 
DISL,ioos:station:DISL:DISL:1,2013-05-01T18:30:00Z,30.2513,-88.0778,2.383536,6.54,1111122 
DISL,ioos:station:DISL:DISL:1,2013-05-01T19:00:00Z,30.2513,-88.0778,2.273808,6.57,1111122 
DISL,ioos:station:DISL:DISL:1,2013-05-01T19:30:00Z,30.2513,-88.0778,2.3561041,6.66,1111122 
DISL,ioos:station:DISL:DISL:1,2013-05-01T20:00:00Z,30.2513,-88.0778,2.4384,6.72,1111122 
DISL,ioos:station:DISL:DISL:1,2013-05-01T20:30:00Z,30.2513,-88.0778,2.4566882,6.67,1111122 
DISL,ioos:station:DISL:DISL:1,2013-05-01T21:00:00Z,30.2513,-88.0778,2.502408,6.72,1111122 
DISL,ioos:station:DISL:DISL:1,2013-05-01T21:30:00Z,30.2513,-88.0778,2.34696,6.73,1111122 
DISL,ioos:station:DISL:DISL:1,2013-05-01T22:00:00Z,30.2513,-88.0778,2.380488,6.71,1111122 
DISL,ioos:station:DISL:DISL:1,2013-05-01T22:30:00Z,30.2513,-88.0778,2.383536,6.71,1111122 
DISL,ioos:station:DISL:DISL:1,2013-05-01T23:00:00Z,30.2513,-88.0778,2.474976,6.83,1111122 
DISL,ioos:station:DISL:DISL:1,2013-05-01T23:30:00Z,30.2513,-88.0778,2.37744,6.89,1111122 
DISL,ioos:station:DISL:DISL:1,2013-05-02T00:00:00Z,30.2513,-88.0778,2.5206962,6.82,1111122 
DISL,ioos:station:DISL:DISL:1,2013-05-02T00:30:00Z,30.2513,-88.0778,2.4079201,6.83,1111122 
DISL,ioos:station:DISL:DISL:1,2013-05-02T01:00:00Z,30.2513,-88.0778,2.350008,6.89,1111122 
DISL,ioos:station:DISL:DISL:1,2013-05-02T01:30:00Z,30.2513,-88.0778,2.307336,6.88,1111122 
DISL,ioos:station:DISL:DISL:1,2013-05-02T02:00:00Z,30.2513,-88.0778,2.310384,6.84,1111122 
DISL,ioos:station:DISL:DISL:1,2013-05-02T02:30:00Z,30.2513,-88.0778,2.25552,6.76,1111122 
DISL,ioos:station:DISL:DISL:1,2013-05-02T03:00:00Z,30.2513,-88.0778,2.258568,6.64,1111122 
DISL,ioos:station:DISL:DISL:1,2013-05-02T03:30:00Z,30.2513,-88.0778,2.322576,6.55,1111122 
DISL,ioos:station:DISL:DISL:1,2013-05-02T04:00:00Z,30.2513,-88.0778,2.27076,6.5,1111122 
DISL,ioos:station:DISL:DISL:1,2013-05-02T04:30:00Z,30.2513,-88.0778,2.221992,6.58,1111122 
DISL,ioos:station:DISL:DISL:1,2013-05-02T05:00:00Z,30.2513,-88.0778,2.173224,6.54,1111122 
DISL,ioos:station:DISL:DISL:1,2013-05-02T05:30:00Z,30.2513,-88.0778,2.06502,6.49,1111122 
DISL,ioos:station:DISL:DISL:1,2013-05-02T06:00:00Z,30.2513,-88.0778,2.2128482,6.51,1111122 
DISL,ioos:station:DISL:DISL:1,2013-05-02T06:30:00Z,30.2513,-88.0778,2.123237,6.41,1111122 
DISL,ioos:station:DISL:DISL:1,2013-05-02T07:00:00Z,30.2513,-88.0778,2.16408,6.36,1111122 
DISL,ioos:station:DISL:DISL:1,2013-05-02T07:30:00Z,30.2513,-88.0778,2.182368,6.48,1111122 
DISL,ioos:station:DISL:DISL:1,2013-05-02T08:00:00Z,30.2513,-88.0778,2.258568,6.47,1111122 
DISL,ioos:station:DISL:DISL:1,2013-05-02T08:30:00Z,30.2513,-88.0778,2.24028,6.87,1111122 
DISL,ioos:station:DISL:DISL:1,2013-05-02T09:00:00Z,30.2513,-88.0778,2.27076,6.87,1111122 
DISL,ioos:station:DISL:DISL:1,2013-05-02T09:30:00Z,30.2513,-88.0778,2.273808,6.84,1111122 
DISL,ioos:station:DISL:DISL:1,2013-05-02T10:00:00Z,30.2513,-88.0778,2.252472,6.86,1111122 
DISL,ioos:station:DISL:DISL:1,2013-05-02T10:30:00Z,30.2513,-88.0778,2.243328,6.84,1111122 
DISL,ioos:station:DISL:DISL:1,2013-05-02T11:00:00Z,30.2513,-88.0778,2.258568,6.81,1111122 
DISL,ioos:station:DISL:DISL:1,2013-05-02T11:30:00Z,30.2513,-88.0778,2.307336,6.85,1111122 
DISL,ioos:station:DISL:DISL:1,2013-05-02T12:00:00Z,30.2513,-88.0778,2.328672,6.92,1111122 
DISL,ioos:station:DISL:DISL:1,2013-05-02T12:30:00Z,30.2513,-88.0778,2.322576,6.92,1111122 
DISL,ioos:station:DISL:DISL:1,2013-05-02T13:00:00Z,30.2513,-88.0778,2.3561041,6.97,1111122 
DISL,ioos:station:DISL:DISL:1,2013-05-02T13:30:00Z,30.2513,-88.0778,2.304288,6.99,1111122 
DISL,ioos:station:DISL:DISL:1,2013-05-02T14:00:00Z,30.2513,-88.0778,2.368296,7.03,1111122 
DISL,ioos:station:DISL:DISL:1,2013-05-02T14:30:00Z,30.2513,-88.0778,2.380488,7.03,1111122 
DISL,ioos:station:DISL:DISL:1,2013-05-02T15:00:00Z,30.2513,-88.0778,2.282952,7.01,1111122 
DISL,ioos:station:DISL:DISL:1,2013-05-02T15:30:00Z,30.2513,-88.0778,2.2890482,7.0,1111122 
DISL,ioos:station:DISL:DISL:1,2013-05-02T16:00:00Z,30.2513,-88.0778,2.310384,7.01,1111122 
DISL,ioos:station:DISL:DISL:1,2013-05-02T16:30:00Z,30.2513,-88.0778,2.307336,7.01,1111122 
DISL,ioos:station:DISL:DISL:1,2013-05-02T17:00:00Z,30.2513,-88.0778,2.322576,7.0,1111122 
DISL,ioos:station:DISL:DISL:1,2013-05-02T17:30:00Z,30.2513,-88.0778,2.310384,6.84,1111122 
DISL,ioos:station:DISL:DISL:1,2013-05-02T18:00:00Z,30.2513,-88.0778,2.310384,6.84,1111122 
DISL,ioos:station:DISL:DISL:1,2013-05-02T18:30:00Z,30.2513,-88.0778,2.307336,6.75,1111122 
DISL,ioos:station:DISL:DISL:1,2013-05-02T19:00:00Z,30.2513,-88.0778,2.313432,6.51,1111122 
DISL,ioos:station:DISL:DISL:1,2013-05-02T19:30:00Z,30.2513,-88.0778,2.319528,6.46,1111122 
DISL,ioos:station:DISL:DISL:1,2013-05-02T20:00:00Z,30.2513,-88.0778,2.337816,6.51,1111122 
DISL,ioos:station:DISL:DISL:1,2013-05-02T20:30:00Z,30.2513,-88.0778,2.310384,6.7,1111122 
DISL,ioos:station:DISL:DISL:1,2013-05-02T21:00:00Z,30.2513,-88.0778,2.3591518,6.81,1111122 
DISL,ioos:station:DISL:DISL:1,2013-05-02T21:30:00Z,30.2513,-88.0778,2.340864,7.08,1111122 
DISL,ioos:station:DISL:DISL:1,2013-05-02T22:00:00Z,30.2513,-88.0778,2.340864,7.29,1111122 
DISL,ioos:station:DISL:DISL:1,2013-05-02T22:30:00Z,30.2513,-88.0778,2.319528,7.25,1111122 
DISL,ioos:station:DISL:DISL:1,2013-05-02T23:00:00Z,30.2513,-88.0778,2.304288,7.45,1111122 
DISL,ioos:station:DISL:DISL:1,2013-05-02T23:30:00Z,30.2513,-88.0778,2.307336,7.4,1111122 
DISL,ioos:station:DISL:DISL:1,2013-05-03T00:00:00Z,30.2513,-88.0778,2.310384,7.43,1111122 
DISL,ioos:station:DISL:DISL:1,2013-05-03T00:30:00Z,30.2513,-88.0778,2.313432,7.32,1111122 
DISL,ioos:station:DISL:DISL:1,2013-05-03T01:00:00Z,30.2513,-88.0778,2.2920961,7.36,1111122 
DISL,ioos:station:DISL:DISL:1,2013-05-03T01:30:00Z,30.2513,-88.0778,2.27076,7.15,1111122 
DISL,ioos:station:DISL:DISL:1,2013-05-03T02:00:00Z,30.2513,-88.0778,2.319528,7.24,1111122 
DISL,ioos:station:DISL:DISL:1,2013-05-03T02:30:00Z,30.2513,-88.0778,2.34696,7.05,1111122 
DISL,ioos:station:DISL:DISL:1,2013-05-03T03:00:00Z,30.2513,-88.0778,2.252472,7.04,1111122 
DISL,ioos:station:DISL:DISL:1,2013-05-03T03:30:00Z,30.2513,-88.0778,2.221992,7.39,1111122 
DISL,ioos:station:DISL:DISL:1,2013-05-03T04:00:00Z,30.2513,-88.0778,2.191512,7.38,1111122 
DISL,ioos:station:DISL:DISL:1,2013-05-03T04:30:00Z,30.2513,-88.0778,2.167128,7.31,1111122 
DISL,ioos:station:DISL:DISL:1,2013-05-03T05:00:00Z,30.2513,-88.0778,2.17932,7.32,1111122 
DISL,ioos:station:DISL:DISL:1,2013-05-03T05:30:00Z,30.2513,-88.0778,2.157984,7.29,1111122 
DISL,ioos:station:DISL:DISL:1,2013-05-03T06:00:00Z,30.2513,-88.0778,2.142744,7.28,1111122 
DISL,ioos:station:DISL:DISL:1,2013-05-03T06:30:00Z,30.2513,-88.0778,2.1189697,7.34,1111122 
DISL,ioos:station:DISL:DISL:1,2013-05-03T07:00:00Z,30.2513,-88.0778,2.1104352,7.34,1111122 
DISL,ioos:station:DISL:DISL:1,2013-05-03T07:30:00Z,30.2513,-88.0778,2.124456,7.3,1111122 
DISL,ioos:station:DISL:DISL:1,2013-05-03T08:00:00Z,30.2513,-88.0778,2.0583143,7.01,1111122 
DISL,ioos:station:DISL:DISL:1,2013-05-03T08:30:00Z,30.2513,-88.0778,2.109216,7.19,1111122 
DISL,ioos:station:DISL:DISL:1,2013-05-03T09:00:00Z,30.2513,-88.0778,2.0951953,7.26,1111122 
DISL,ioos:station:DISL:DISL:1,2013-05-03T09:30:00Z,30.2513,-88.0778,2.1143975,7.19,1111122 
DISL,ioos:station:DISL:DISL:1,2013-05-03T10:00:00Z,30.2513,-88.0778,2.1336,7.23,1111122 
DISL,ioos:station:DISL:DISL:1,2013-05-03T10:30:00Z,30.2513,-88.0778,2.1488402,7.18,1111122 
DISL,ioos:station:DISL:DISL:1,2013-05-03T11:00:00Z,30.2513,-88.0778,2.182368,7.15,1111122 
DISL,ioos:station:DISL:DISL:1,2013-05-03T11:30:00Z,30.2513,-88.0778,2.167128,6.97,1111122 
DISL,ioos:station:DISL:DISL:1,2013-05-03T12:00:00Z,30.2513,-88.0778,2.203704,6.87,1111122 
DISL,ioos:station:DISL:DISL:1,2013-05-03T12:30:00Z,30.2513,-88.0778,2.173224,6.63,1111122 
DISL,ioos:station:DISL:DISL:1,2013-05-03T13:00:00Z,30.2513,-88.0778,2.200656,6.57,1111122 
DISL,ioos:station:DISL:DISL:1,2013-05-03T13:30:00Z,30.2513,-88.0778,2.167128,6.64,1111122 
DISL,ioos:station:DISL:DISL:1,2013-05-03T14:00:00Z,30.2513,-88.0778,2.24028,6.67,1111122 
DISL,ioos:station:DISL:DISL:1,2013-05-03T14:30:00Z,30.2513,-88.0778,2.249424,6.82,1111122 
DISL,ioos:station:DISL:DISL:1,2013-05-03T15:00:00Z,30.2513,-88.0778,2.273808,6.61,1111122 
DISL,ioos:station:DISL:DISL:1,2013-05-03T15:30:00Z,30.2513,-88.0778,2.264664,6.15,1111122 
DISL,ioos:station:DISL:DISL:1,2013-05-03T16:00:00Z,30.2513,-88.0778,2.24028,5.95,1111122 
DISL,ioos:station:DISL:DISL:1,2013-05-03T16:30:00Z,30.2513,-88.0778,2.161032,6.56,1111122 
DISL,ioos:station:DISL:DISL:1,2013-05-03T17:00:00Z,30.2513,-88.0778,2.252472,6.05,1111122 
DISL,ioos:station:DISL:DISL:1,2013-05-03T17:30:00Z,30.2513,-88.0778,2.2128482,6.04,1111122 
DISL,ioos:station:DISL:DISL:1,2013-05-03T18:00:00Z,30.2513,-88.0778,2.2250402,8.29,1111122 
DISL,ioos:station:DISL:DISL:1,2013-05-03T18:30:00Z,30.2513,-88.0778,2.3012402,8.49,1111122 
DISL,ioos:station:DISL:DISL:1,2013-05-03T19:00:00Z,30.2513,-88.0778,2.261616,8.7,1111122 
DISL,ioos:station:DISL:DISL:1,2013-05-03T19:30:00Z,30.2513,-88.0778,2.243328,8.74,1111122 
DISL,ioos:station:DISL:DISL:1,2013-05-03T20:00:00Z,30.2513,-88.0778,2.228088,8.8,1111122 
DISL,ioos:station:DISL:DISL:1,2013-05-03T20:30:00Z,30.2513,-88.0778,2.2158961,8.85,1111122 
DISL,ioos:station:DISL:DISL:1,2013-05-03T21:00:00Z,30.2513,-88.0778,2.249424,8.94,1111122 
DISL,ioos:station:DISL:DISL:1,2013-05-03T21:30:00Z,30.2513,-88.0778,2.203704,8.92,1111122 
DISL,ioos:station:DISL:DISL:1,2013-05-03T22:00:00Z,30.2513,-88.0778,2.228088,9.08,1111122 
DISL,ioos:station:DISL:DISL:1,2013-05-03T22:30:00Z,30.2513,-88.0778,2.218944,9.43,1111122 
DISL,ioos:station:DISL:DISL:1,2013-05-03T23:00:00Z,30.2513,-88.0778,2.191512,9.31,1111122 
DISL,ioos:station:DISL:DISL:1,2013-05-03T23:30:00Z,30.2513,-88.0778,2.218944,9.2,1111122 
DISL,ioos:station:DISL:DISL:1,2013-05-04T00:00:00Z,30.2513,-88.0778,2.298192,8.93,1111122 
DISL,ioos:station:DISL:DISL:1,2013-05-04T00:30:00Z,30.2513,-88.0778,2.221992,8.82,1111122 
DISL,ioos:station:DISL:DISL:1,2013-05-04T01:00:00Z,30.2513,-88.0778,2.258568,8.17,1111122 
DISL,ioos:station:DISL:DISL:1,2013-05-04T01:30:00Z,30.2513,-88.0778,2.071421,7.89,1111122 
DISL,ioos:station:DISL:DISL:1,2013-05-04T02:00:00Z,30.2513,-88.0778,2.1488402,7.91,1111122 
DISL,ioos:station:DISL:DISL:1,2013-05-04T02:30:00Z,30.2513,-88.0778,2.264664,8.66,1111122 
DISL,ioos:station:DISL:DISL:1,2013-05-04T03:00:00Z,30.2513,-88.0778,2.170176,8.61,1111122 
DISL,ioos:station:DISL:DISL:1,2013-05-04T03:30:00Z,30.2513,-88.0778,2.16408,8.57,1111122 
DISL,ioos:station:DISL:DISL:1,2013-05-04T04:00:00Z,30.2513,-88.0778,2.17932,8.47,1111122 
DISL,ioos:station:DISL:DISL:1,2013-05-04T04:30:00Z,30.2513,-88.0778,2.151888,8.44,1111122 
DISL,ioos:station:DISL:DISL:1,2013-05-04T05:00:00Z,30.2513,-88.0778,2.0985482,8.34,1111122 
DISL,ioos:station:DISL:DISL:1,2013-05-04T05:30:00Z,30.2513,-88.0778,2.0890992,8.32,1111122 
DISL,ioos:station:DISL:DISL:1,2013-05-04T06:00:00Z,30.2513,-88.0778,2.1311617,8.29,1111122 
DISL,ioos:station:DISL:DISL:1,2013-05-04T06:30:00Z,30.2513,-88.0778,1.9418808,8.24,1111122 
DISL,ioos:station:DISL:DISL:1,2013-05-04T07:00:00Z,30.2513,-88.0778,1.8894552,8.42,1111122 
DISL,ioos:station:DISL:DISL:1,2013-05-04T07:30:00Z,30.2513,-88.0778,2.142744,8.43,1111122 
DISL,ioos:station:DISL:DISL:1,2013-05-04T08:00:00Z,30.2513,-88.0778,2.0769072,8.41,1111122 
DISL,ioos:station:DISL:DISL:1,2013-05-04T08:30:00Z,30.2513,-88.0778,2.151888,8.42,1111122 
DISL,ioos:station:DISL:DISL:1,2013-05-04T09:00:00Z,30.2513,-88.0778,1.9647409,8.39,1111122 
DISL,ioos:station:DISL:DISL:1,2013-05-04T09:30:00Z,30.2513,-88.0778,2.0912328,8.38,1111122 
DISL,ioos:station:DISL:DISL:1,2013-05-04T10:00:00Z,30.2513,-88.0778,1.9958304,8.39,1111122 
DISL,ioos:station:DISL:DISL:1,2013-05-04T10:30:00Z,30.2513,-88.0778,1.9043905,8.35,1111122 
DISL,ioos:station:DISL:DISL:1,2013-05-04T11:00:00Z,30.2513,-88.0778,1.8376392,8.39,1111122 
DISL,ioos:station:DISL:DISL:1,2013-05-04T11:30:00Z,30.2513,-88.0778,1.7980152,8.34,1111122 
DISL,ioos:station:DISL:DISL:1,2013-05-04T12:00:00Z,30.2513,-88.0778,1.9199351,8.38,1111122 
DISL,ioos:station:DISL:DISL:1,2013-05-04T12:30:00Z,30.2513,-88.0778,1.9165825,8.29,1111122 
DISL,ioos:station:DISL:DISL:1,2013-05-04T13:00:00Z,30.2513,-88.0778,1.8970752,8.23,1111122 
DISL,ioos:station:DISL:DISL:1,2013-05-04T13:30:00Z,30.2513,-88.0778,1.941576,8.24,1111122 
DISL,ioos:station:DISL:DISL:1,2013-05-04T14:00:00Z,30.2513,-88.0778,1.9181064,8.26,1111122 
DISL,ioos:station:DISL:DISL:1,2013-05-04T14:30:00Z,30.2513,-88.0778,1.89738,8.29,1111122 
DISL,ioos:station:DISL:DISL:1,2013-05-04T15:00:00Z,30.2513,-88.0778,1.991868,8.37,1111122 
DISL,ioos:station:DISL:DISL:1,2013-05-04T15:30:00Z,30.2513,-88.0778,1.985772,8.39,1111122 
DISL,ioos:station:DISL:DISL:1,2013-05-04T16:00:00Z,30.2513,-88.0778,1.9534632,8.49,1111122 
DISL,ioos:station:DISL:DISL:1,2013-05-04T16:30:00Z,30.2513,-88.0778,1.9653504,8.55,1111122 
DISL,ioos:station:DISL:DISL:1,2013-05-04T17:00:00Z,30.2513,-88.0778,2.0000975,8.58,1111122 
DISL,ioos:station:DISL:DISL:1,2013-05-04T17:30:00Z,30.2513,-88.0778,1.9357848,8.68,1111122 
DISL,ioos:station:DISL:DISL:1,2013-05-04T18:00:00Z,30.2513,-88.0778,1.9519391,8.85,1111122 
DISL,ioos:station:DISL:DISL:1,2013-05-04T18:30:00Z,30.2513,-88.0778,2.0247865,8.87,1111122 
DISL,ioos:station:DISL:DISL:1,2013-05-04T19:00:00Z,30.2513,-88.0778,1.9790665,8.99,1111122 
DISL,ioos:station:DISL:DISL:1,2013-05-04T19:30:00Z,30.2513,-88.0778,1.9732752,8.97,1111122 
DISL,ioos:station:DISL:DISL:1,2013-05-04T20:00:00Z,30.2513,-88.0778,1.9677888,8.95,1111122 
DISL,ioos:station:DISL:DISL:1,2013-05-04T20:30:00Z,30.2513,-88.0778,2.0903184,9.08,1111122 
DISL,ioos:station:DISL:DISL:1,2013-05-04T21:00:00Z,30.2513,-88.0778,2.005584,9.2,1111122 
DISL,ioos:station:DISL:DISL:1,2013-05-04T21:30:00Z,30.2513,-88.0778,2.0302727,9.04,1111122 
DISL,ioos:station:DISL:DISL:1,2013-05-04T22:00:00Z,30.2513,-88.0778,2.0778215,8.81,1111122 
DISL,ioos:station:DISL:DISL:1,2013-05-04T22:30:00Z,30.2513,-88.0778,1.9997928,9.18,1111122 
DISL,ioos:station:DISL:DISL:1,2013-05-04T23:00:00Z,30.2513,-88.0778,2.0485609,9.13,1111122 
DISL,ioos:station:DISL:DISL:1,2013-05-04T23:30:00Z,30.2513,-88.0778,2.0570953,8.88,1111122 
DISL,ioos:station:DISL:DISL:1,2013-05-05T00:00:00Z,30.2513,-88.0778,2.130552,8.83,1111122 
DISL,ioos:station:DISL:DISL:1,2013-05-05T00:30:00Z,30.2513,-88.0778,2.0522184,8.54,1111122 
DISL,ioos:station:DISL:DISL:1,2013-05-05T01:00:00Z,30.2513,-88.0778,2.0445986,8.76,1111122 
DISL,ioos:station:DISL:DISL:1,2013-05-05T01:30:00Z,30.2513,-88.0778,2.042465,8.73,1111122 
DISL,ioos:station:DISL:DISL:1,2013-05-05T02:00:00Z,30.2513,-88.0778,2.071421,7.91,1111122 
DISL,ioos:station:DISL:DISL:1,2013-05-05T02:30:00Z,30.2513,-88.0778,2.0729449,8.72,1111122 
DISL,ioos:station:DISL:DISL:1,2013-05-05T03:00:00Z,30.2513,-88.0778,2.0656297,8.85,1111122 
DISL,ioos:station:DISL:DISL:1,2013-05-05T03:30:00Z,30.2513,-88.0778,2.0564857,8.7,1111122 
DISL,ioos:station:DISL:DISL:1,2013-05-05T04:00:00Z,30.2513,-88.0778,2.0409408,8.72,1111122 
DISL,ioos:station:DISL:DISL:1,2013-05-05T04:30:00Z,30.2513,-88.0778,2.0278344,8.67,1111122 
DISL,ioos:station:DISL:DISL:1,2013-05-05T05:00:00Z,30.2513,-88.0778,2.0348449,8.65,1111122 
DISL,ioos:station:DISL:DISL:1,2013-05-05T05:30:00Z,30.2513,-88.0778,2.0369785,8.45,1111122 
DISL,ioos:station:DISL:DISL:1,2013-05-05T06:00:00Z,30.2513,-88.0778,2.0461223,8.65,1111122 
DISL,ioos:station:DISL:DISL:1,2013-05-05T06:30:00Z,30.2513,-88.0778,2.029968,8.61,1111122 
DISL,ioos:station:DISL:DISL:1,2013-05-05T07:00:00Z,30.2513,-88.0778,2.039112,8.55,1111122 
DISL,ioos:station:DISL:DISL:1,2013-05-05T07:30:00Z,30.2513,-88.0778,2.025396,8.57,1111122 
DISL,ioos:station:DISL:DISL:1,2013-05-05T08:00:00Z,30.2513,-88.0778,2.0135088,8.46,1111122 
DISL,ioos:station:DISL:DISL:1,2013-05-05T08:30:00Z,30.2513,-88.0778,2.0007071,8.38,1111122 
DISL,ioos:station:DISL:DISL:1,2013-05-05T09:00:00Z,30.2513,-88.0778,1.9985737,8.18,1111122 
DISL,ioos:station:DISL:DISL:1,2013-05-05T09:30:00Z,30.2513,-88.0778,2.0098512,8.06,1111122 
DISL,ioos:station:DISL:DISL:1,2013-05-05T10:00:00Z,30.2513,-88.0778,2.0138135,8.05,1111122 
DISL,ioos:station:DISL:DISL:1,2013-05-05T10:30:00Z,30.2513,-88.0778,1.99644,7.98,1111122 
DISL,ioos:station:DISL:DISL:1,2013-05-05T11:00:00Z,30.2513,-88.0778,1.9839432,7.83,1111122 
DISL,ioos:station:DISL:DISL:1,2013-05-05T11:30:00Z,30.2513,-88.0778,1.9894296,7.74,1111122 
DISL,ioos:station:DISL:DISL:1,2013-05-05T12:00:00Z,30.2513,-88.0778,2.001012,7.73,1111122 
DISL,ioos:station:DISL:DISL:1,2013-05-05T12:30:00Z,30.2513,-88.0778,2.0308824,7.88,1111122 
DISL,ioos:station:DISL:DISL:1,2013-05-05T13:00:00Z,30.2513,-88.0778,2.0342352,7.89,1111122 
DISL,ioos:station:DISL:DISL:1,2013-05-05T13:30:00Z,30.2513,-88.0778,2.0516088,7.98,1111122 
DISL,ioos:station:DISL:DISL:1,2013-05-05T14:00:00Z,30.2513,-88.0778,2.0439887,8.1,1111122 
DISL,ioos:station:DISL:DISL:1,2013-05-05T14:30:00Z,30.2513,-88.0778,2.0509992,8.2,1111122 
DISL,ioos:station:DISL:DISL:1,2013-05-05T15:00:00Z,30.2513,-88.0778,2.020824,8.33,1111122 
DISL,ioos:station:DISL:DISL:1,2013-05-05T15:30:00Z,30.2513,-88.0778,2.0068033,8.37,1111122 
DISL,ioos:station:DISL:DISL:1,2013-05-05T16:00:00Z,30.2513,-88.0778,1.9662648,8.46,1111122 
DISL,ioos:station:DISL:DISL:1,2013-05-05T16:30:00Z,30.2513,-88.0778,1.9406617,8.52,1111122 
DISL,ioos:station:DISL:DISL:1,2013-05-05T17:00:00Z,30.2513,-88.0778,1.9257264,8.61,1111122 
DISL,ioos:station:DISL:DISL:1,2013-05-05T17:30:00Z,30.2513,-88.0778,1.9251168,8.7,1111122 
DISL,ioos:station:DISL:DISL:1,2013-05-05T18:00:00Z,30.2513,-88.0778,1.9129249,8.75,1111122 
DISL,ioos:station:DISL:DISL:1,2013-05-05T18:30:00Z,30.2513,-88.0778,1.8934176,8.77,1111122 
DISL,ioos:station:DISL:DISL:1,2013-05-05T19:00:00Z,30.2513,-88.0778,1.8931128,8.83,1111122 
DISL,ioos:station:DISL:DISL:1,2013-05-05T19:30:00Z,30.2513,-88.0778,1.8812256,8.84,1111122 
DISL,ioos:station:DISL:DISL:1,2013-05-05T20:00:00Z,30.2513,-88.0778,1.8803113,8.74,1111122 
DISL,ioos:station:DISL:DISL:1,2013-05-05T20:30:00Z,30.2513,-88.0778,1.8769584,8.78,1111122 
DISL,ioos:station:DISL:DISL:1,2013-05-05T21:00:00Z,30.2513,-88.0778,1.818132,8.88,1111122 
DISL,ioos:station:DISL:DISL:1,2013-05-05T21:30:00Z,30.2513,-88.0778,1.8102072,8.95,1111122 
DISL,ioos:station:DISL:DISL:1,2013-05-05T22:00:00Z,30.2513,-88.0778,1.8239232,8.87,1111122 
DISL,ioos:station:DISL:DISL:1,2013-05-05T22:30:00Z,30.2513,-88.0778,1.8214848,8.63,1111122 
DISL,ioos:station:DISL:DISL:1,2013-05-05T23:00:00Z,30.2513,-88.0778,1.8031968,8.91,1111122 
DISL,ioos:station:DISL:DISL:1,2013-05-05T23:30:00Z,30.2513,-88.0778,1.7535144,9.14,1111122 
DISL,ioos:station:DISL:DISL:1,2013-05-06T00:00:00Z,30.2513,-88.0778,1.8041112,8.95,1111122 
DISL,ioos:station:DISL:DISL:1,2013-05-06T00:30:00Z,30.2513,-88.0778,1.8099024,8.8,1111122 
DISL,ioos:station:DISL:DISL:1,2013-05-06T01:00:00Z,30.2513,-88.0778,1.8004537,8.68,1111122 
DISL,ioos:station:DISL:DISL:1,2013-05-06T01:30:00Z,30.2513,-88.0778,1.764792,8.39,1111122 
DISL,ioos:station:DISL:DISL:1,2013-05-06T02:00:00Z,30.2513,-88.0778,1.7785081,8.31,1111122 
DISL,ioos:station:DISL:DISL:1,2013-05-06T02:30:00Z,30.2513,-88.0778,1.7867376,8.52,1111122 
DISL,ioos:station:DISL:DISL:1,2013-05-06T03:00:00Z,30.2513,-88.0778,1.7306544,8.48,1111122 
DISL,ioos:station:DISL:DISL:1,2013-05-06T03:30:00Z,30.2513,-88.0778,1.6971264,8.56,1111122 
DISL,ioos:station:DISL:DISL:1,2013-05-06T04:00:00Z,30.2513,-88.0778,1.7614392,8.45,1111122 
DISL,ioos:station:DISL:DISL:1,2013-05-06T04:30:00Z,30.2513,-88.0778,1.7340072,8.33,1111122 
DISL,ioos:station:DISL:DISL:1,2013-05-06T05:00:00Z,30.2513,-88.0778,1.8016727,8.18,1111122 
DISL,ioos:station:DISL:DISL:1,2013-05-06T05:30:00Z,30.2513,-88.0778,1.7821656,8.09,1111122 
DISL,ioos:station:DISL:DISL:1,2013-05-06T06:00:00Z,30.2513,-88.0778,1.7867376,8.06,1111122 
DISL,ioos:station:DISL:DISL:1,2013-05-06T06:30:00Z,30.2513,-88.0778,1.8205705,7.99,1111122 
DISL,ioos:station:DISL:DISL:1,2013-05-06T07:00:00Z,30.2513,-88.0778,1.8159984,8.04,1111122 
DISL,ioos:station:DISL:DISL:1,2013-05-06T07:30:00Z,30.2513,-88.0778,1.8644617,7.87,1111122 
DISL,ioos:station:DISL:DISL:1,2013-05-06T08:00:00Z,30.2513,-88.0778,1.839468,7.99,1111122 
DISL,ioos:station:DISL:DISL:1,2013-05-06T08:30:00Z,30.2513,-88.0778,1.8486121,7.87,1111122 
DISL,ioos:station:DISL:DISL:1,2013-05-06T09:00:00Z,30.2513,-88.0778,1.8803113,7.82,1111122 
DISL,ioos:station:DISL:DISL:1,2013-05-06T09:30:00Z,30.2513,-88.0778,1.8995136,7.6,1111122 
DISL,ioos:station:DISL:DISL:1,2013-05-06T10:00:00Z,30.2513,-88.0778,1.9296888,6.93,1111122 